Beckley, WV

10:48 AM EDT on July 21, 2017 (GMT -0400)
Raleigh County Memorial

Weather History for KBKW - December, 2010

Change the Weather History Date:

Sunday, December 19, 2010

  Actual Average Record
Temperature  
Mean Temperature 20 °F 33 °F  
Max Temperature 22 °F 41 °F 65 °F (1899)
Min Temperature 18 °F 25 °F -2 °F (1953)
Degree Days  
Heating Degree Days 45 32  
Month to date heating degree days 796 560  
Since 1 July heating degree days 1758 1700  
Cooling Degree Days 0 0  
Month to date cooling degree days 0 0  
Year to date cooling degree days 871 557  
Moisture  
Dew Point 15 °F    
Average Humidity 82    
Maximum Humidity 92    
Minimum Humidity 71    
Precipitation  
Precipitation T in 0.10 in 1.50 in (1914)
Month to date precipitation 1.95 1.87  
Year to date precipitation 42.95 40.06  
Snow  
Snow T in - - ()
Month to date snowfall 29.9  
Since 1 September snowfall 29.9  
Snow Depth 5.00 in    
Sea Level Pressure  
Sea Level Pressure 30.07 in    
Wind  
Wind Speed 7 mph (NW)    
Max Wind Speed 12 mph    
Max Gust Speed 15 mph    
Visibility 6 miles    
Events Snow    
T = Trace of Precipitation, MM = Missing Value Source: NWS Daily Summary

Daily Weather History Graph

Daily Weather History Graph

Search for Another Location

Airport or City:

Trip Planner

Search our weather history database for the weather conditions in past years. The results will help you decide how hot, cold, wet, or windy it might be!

Date:

Astronomy

Dec. 19, 2010 Rise Set
Actual Time 7:35 AM EST 5:08 PM EST
Civil Twilight 7:05 AM EST 5:37 PM EST
Nautical Twilight 6:32 AM EST 6:10 PM EST
Astronomical Twilight 6:00 AM EST 6:42 PM EST
Moon 3:40 PM EST (12/19) 5:56 AM EST (12/19)
Length of Visible Light 10h 31m
Length of Day
9h 32m
Waxing Gibbous, 97% of the Moon is Illuminated
Dec 19
Waxing Gibbous
Dec 21
Full
Dec 27
Last Quarter
Jan 4
New
Jan 12
First Quarter

Hourly Weather History & Observations

Time (EST) Temp. Windchill Dew Point Humidity Pressure Visibility Wind Dir Wind Speed Gust Speed Precip Events Conditions
12:42 AM 21.2 °F 13.6 °F 17.6 °F 86% 29.95 in 9.0 mi North 5.8 mph - N/A   Overcast
12:51 AM 21.0 °F 11.4 °F 18.0 °F 88% 30.07 in 10.0 mi North 8.1 mph - N/A   Overcast
1:12 AM 21.2 °F 13.6 °F 17.6 °F 86% 29.96 in 9.0 mi NNW 5.8 mph - N/A   Overcast
1:51 AM 21.0 °F 14.6 °F 17.1 °F 85% 30.08 in 9.0 mi North 4.6 mph - N/A   Overcast
2:51 AM 19.9 °F 12.1 °F 17.1 °F 89% 30.09 in 10.0 mi NNW 5.8 mph - N/A   Overcast
3:51 AM 19.9 °F 11.1 °F 17.1 °F 89% 30.08 in 9.0 mi North 6.9 mph - N/A   Overcast
4:51 AM 19.9 °F 12.1 °F 16.0 °F 85% 30.09 in 8.0 mi North 5.8 mph - N/A   Overcast
5:51 AM 19.0 °F 9.0 °F 16.0 °F 88% 30.10 in 6.0 mi NW 8.1 mph - N/A   Overcast
6:51 AM 18.0 °F 6.1 °F 15.1 °F 88% 30.11 in 8.0 mi NW 10.4 mph - N/A   Overcast
7:51 AM 19.0 °F 11.1 °F 16.0 °F 88% 30.12 in 6.0 mi NW 5.8 mph - N/A   Overcast
8:51 AM 19.0 °F 9.0 °F 16.0 °F 88% 30.12 in 2.0 mi NNW 8.1 mph - 0.00 in Snow Light Snow
9:30 AM 19.4 °F 10.4 °F 15.8 °F 86% 30.00 in 1.5 mi NNW 6.9 mph - 0.00 in Snow Light Snow
9:51 AM 19.0 °F 10.0 °F 16.0 °F 88% 30.15 in 1.2 mi NW 6.9 mph - 0.00 in Snow Light Snow
10:20 AM 19.4 °F 12.8 °F 15.8 °F 86% 30.02 in 1.5 mi WNW 4.6 mph - 0.00 in Snow Light Snow
10:49 AM 19.4 °F 12.8 °F 14.0 °F 80% 30.02 in 2.0 mi NNW 4.6 mph - 0.00 in Snow Light Snow
10:51 AM 19.9 °F 12.1 °F 14.0 °F 78% 30.14 in 2.0 mi NNW 5.8 mph - 0.00 in Snow Light Snow
11:04 AM 19.4 °F 12.8 °F 14.0 °F 80% 30.01 in 1.8 mi North 4.6 mph - 0.00 in Snow Light Snow
11:14 AM 19.4 °F 12.8 °F 14.0 °F 80% 30.01 in 2.0 mi North 4.6 mph - 0.00 in Snow Light Snow
11:24 AM 19.4 °F 12.8 °F 14.0 °F 80% 30.00 in 1.5 mi NNW 4.6 mph - 0.00 in Snow Light Snow
11:51 AM 19.9 °F 11.1 °F 15.1 °F 81% 30.13 in 1.5 mi NW 6.9 mph - 0.00 in Snow Light Snow
12:05 PM 19.4 °F 8.6 °F 12.2 °F 74% 30.00 in 2.0 mi NW 9.2 mph - 0.00 in Snow Light Snow
12:30 PM 19.4 °F 10.4 °F 14.0 °F 80% 29.99 in 1.8 mi NW 6.9 mph - 0.00 in Snow Light Snow
12:39 PM 19.4 °F 9.5 °F 14.0 °F 80% 29.98 in 2.5 mi NNW 8.1 mph - 0.00 in Snow Light Snow
12:47 PM 19.4 °F 11.5 °F 14.0 °F 80% 29.98 in 4.0 mi NW 5.8 mph - 0.00 in   Haze
12:51 PM 19.9 °F 10.1 °F 14.0 °F 78% 30.12 in 3.0 mi NNW 8.1 mph - 0.00 in Snow Light Snow
12:57 PM 19.4 °F 10.4 °F 14.0 °F 80% 29.99 in 2.5 mi WNW 6.9 mph - 0.00 in Snow Light Snow
1:05 PM 19.4 °F 12.8 °F 12.2 °F 74% 29.99 in 5.0 mi WNW 4.6 mph - 0.00 in   Haze
1:51 PM 19.9 °F 10.1 °F 12.9 °F 74% 30.12 in 8.0 mi WNW 8.1 mph - 0.00 in   Overcast
2:51 PM 21.0 °F 13.4 °F 14.0 °F 74% 30.12 in 6.0 mi WNW 5.8 mph - N/A   Haze
3:51 PM 21.0 °F 12.4 °F 14.0 °F 74% 30.12 in 4.0 mi NNW 6.9 mph - 0.00 in Snow Light Snow
4:51 PM 21.0 °F 13.4 °F 14.0 °F 74% 30.13 in 10.0 mi NW 5.8 mph - 0.00 in   Overcast
5:51 PM 19.9 °F 10.1 °F 14.0 °F 78% 30.14 in 7.0 mi NNW 8.1 mph - N/A   Overcast
6:46 PM 19.4 °F 11.5 °F 14.0 °F 80% 29.99 in 10.0 mi WNW 5.8 mph - N/A   Overcast
6:51 PM 19.9 °F 11.1 °F 14.0 °F 78% 30.13 in 10.0 mi NW 6.9 mph - N/A   Overcast
7:51 PM 19.9 °F 10.1 °F 14.0 °F 78% 30.13 in 10.0 mi NW 8.1 mph - N/A   Overcast
7:58 PM 19.4 °F 10.4 °F 14.0 °F 80% 29.99 in 10.0 mi NW 6.9 mph - N/A   Overcast
8:51 PM 19.0 °F 9.0 °F 12.9 °F 77% 30.14 in 10.0 mi NW 8.1 mph - N/A   Overcast
9:51 PM 19.0 °F 9.0 °F 12.9 °F 77% 30.15 in 10.0 mi WNW 8.1 mph - N/A   Overcast
10:51 PM 19.0 °F 9.0 °F 12.9 °F 77% 30.15 in 9.0 mi NW 8.1 mph - N/A   Overcast
11:51 PM 19.0 °F 6.8 °F 12.9 °F 77% 30.15 in 8.0 mi NW 11.5 mph - N/A   Overcast